This is the latest recevied weather packets stored in our database for station/object OK9CPU-9. If no packets are shown the sender has not sent any weather packets the latest 10 day(s).
| Time | Temp. | Humidity | Pressure | Rain* | Wind** | Luminosity | Snow |
|---|---|---|---|---|---|---|---|
| 1788049578 | 15.56° C | 32% | 1016.9 hPa | - | - | - | - |
| 1788048583 | 15.56° C | 32% | 1016.9 hPa | - | - | - | - |
| 1788045598 | 15.56° C | 33% | 1016.8 hPa | - | - | - | - |
| 1788042613 | 16.11° C | 33% | 1016.6 hPa | - | - | - | - |
| 1788039628 | 17.22° C | 34% | 1016.8 hPa | - | - | - | - |
| 1788028682 | 21.11° C | 34% | 1016.3 hPa | - | - | - | - |
| 1788026696 | 22.22° C | 34% | 1015.9 hPa | - | - | - | - |
| 1788023707 | 25° C | 32% | 1015.6 hPa | - | - | - | - |
| 1788015747 | 33.89° C | 25% | 1015.8 hPa | - | - | - | - |
| 1788013757 | 36.11° C | 23% | 1015.7 hPa | - | - | - | - |
| 1788001816 | 36.11° C | 23% | 1016.7 hPa | - | - | - | - |
| 1787999826 | 34.44° C | 25% | 1017 hPa | - | - | - | - |
| 1787972960 | 18.33° C | 32% | 1015.5 hPa | - | - | - | - |
| 1787965000 | 19.44° C | 32% | 1014 hPa | - | - | - | - |
| 1787961020 | 21.11° C | 32% | 1013 hPa | - | - | - | - |
| 1787956045 | 23.89° C | 30% | 1011.8 hPa | - | - | - | - |
| 1787953060 | 24.44° C | 30% | 1011.3 hPa | - | - | - | - |
| 1787952064 | 24.44° C | 30% | 1011.4 hPa | - | - | - | - |
| 1787947089 | 25.56° C | 30% | 1013.2 hPa | - | - | - | - |
| 1787946094 | 25.56° C | 30% | 1013.2 hPa | - | - | - | - |
| 1787945099 | 25.56° C | 31% | 1013.2 hPa | - | - | - | - |
| 1787944104 | 26.11° C | 31% | 1013 hPa | - | - | - | - |
| 1787941119 | 26.67° C | 31% | 1013 hPa | - | - | - | - |
| 1787939129 | 27.78° C | 31% | 1012.6 hPa | - | - | - | - |
| 1787938134 | 28.33° C | 30% | 1012.2 hPa | - | - | - | - |
* Rain since midnight (hover to see other rain measurements)
** Current wind speed in m/s (hover to see current wind gust speed)